CFG197 EDDF-LEPA

Flight info

Callsign CFG197
Flight time N/A
Altitude 29000
Route ANEKI2L ANEKI Y163 HERBI/N0465F390 Y164 MOPAN DCT LUTIX DCT BENOT DCT NEMOS DCT GEVEA DCT INCUS DCT BALSI DCT RETNO DCT TUPOX DCT MTG DCT DIVKO DCT VATIR DCT PIVUS N852 VERSO L129 LUNIK
Aircraft A339/H-SADE1E2E3GHIJ3J5M1P2RWXY/LB2D1

Departure

Time N/A
Airport Frankfurt Main Airport (EDDF)

Arrival

Time 2026-05-05 14:31
Airport Palma de Mallorca Airport (LEPA)
Time Latitude Longitude Altitude Speed Heading
2026-05-05 12:34 47.54276 7.64043 38852 ft 441 kts 206°
2026-05-05 12:34 47.48720 7.60048 38858 ft 443 kts 206°
2026-05-05 12:35 47.43173 7.56069 38862 ft 444 kts 206°
2026-05-05 12:35 47.37596 7.52078 38862 ft 446 kts 206°
2026-05-05 12:36 47.32144 7.48185 38880 ft 446 kts 206°
2026-05-05 12:36 47.26428 7.44112 38884 ft 446 kts 206°
2026-05-05 12:37 47.20879 7.40163 38883 ft 446 kts 207°
2026-05-05 12:37 47.15762 7.35035 38885 ft 448 kts 221°
2026-05-05 12:38 47.11615 7.28126 38882 ft 450 kts 231°
2026-05-05 12:38 47.07765 7.20958 38887 ft 450 kts 230°
2026-05-05 12:39 47.03862 7.13785 38901 ft 450 kts 230°
2026-05-05 12:39 46.99955 7.06636 38904 ft 450 kts 230°
2026-05-05 12:40 46.96043 6.99492 38903 ft 450 kts 230°
2026-05-05 12:40 46.92087 6.92380 38920 ft 450 kts 227°
2026-05-05 12:41 46.87487 6.86179 38923 ft 450 kts 218°
2026-05-05 12:41 46.82617 6.80429 38923 ft 450 kts 219°
2026-05-05 12:42 46.77760 6.74655 38919 ft 450 kts 219°
2026-05-05 12:42 46.72906 6.68894 38910 ft 450 kts 219°
2026-05-05 12:43 46.68045 6.63137 38911 ft 450 kts 219°
2026-05-05 12:43 46.63176 6.57387 38912 ft 451 kts 219°
2026-05-05 12:44 46.58303 6.51646 38913 ft 451 kts 219°
2026-05-05 12:44 46.53430 6.45921 38938 ft 451 kts 219°
2026-05-05 12:45 46.48546 6.40193 38919 ft 451 kts 219°
2026-05-05 12:45 46.44483 6.35441 38921 ft 452 kts 219°
2026-05-05 12:46 46.39586 6.29724 38910 ft 452 kts 219°
2026-05-05 12:46 46.34695 6.24029 38913 ft 451 kts 219°
2026-05-05 12:47 46.29802 6.18344 38909 ft 451 kts 219°
2026-05-05 12:47 46.24420 6.13738 38913 ft 452 kts 202°
2026-05-05 12:48 46.18299 6.11602 38917 ft 455 kts 190°
2026-05-05 12:48 46.12040 6.10261 38915 ft 455 kts 191°
2026-05-05 12:49 46.05781 6.08873 38945 ft 455 kts 191°
2026-05-05 12:49 45.99525 6.07486 38941 ft 454 kts 191°
2026-05-05 12:50 45.93300 6.06111 38937 ft 452 kts 191°
2026-05-05 12:50 45.87079 6.04737 38940 ft 452 kts 191°
2026-05-05 12:51 45.80853 6.03366 38932 ft 453 kts 191°
2026-05-05 12:51 45.74686 6.02004 38934 ft 451 kts 191°
2026-05-05 12:52 45.68476 6.00634 38911 ft 451 kts 192°
2026-05-05 12:52 45.62273 5.99269 38910 ft 451 kts 191°
2026-05-05 12:53 45.56063 5.97908 38913 ft 452 kts 192°
2026-05-05 12:53 45.49853 5.96547 38915 ft 452 kts 192°
2026-05-05 12:54 45.40681 5.93888 38919 ft 449 kts 195°
2026-05-05 12:55 45.34577 5.91971 38917 ft 449 kts 195°
2026-05-05 12:55 45.28480 5.90072 38920 ft 448 kts 195°
2026-05-05 12:56 45.22377 5.88175 38916 ft 449 kts 195°
2026-05-05 12:56 45.16273 5.86283 38920 ft 449 kts 195°
2026-05-05 12:57 45.10165 5.84393 38925 ft 449 kts 195°
2026-05-05 12:57 45.04066 5.82509 38915 ft 448 kts 195°
2026-05-05 12:58 44.98000 5.80646 38919 ft 446 kts 195°
2026-05-05 12:58 44.91942 5.78781 38915 ft 446 kts 195°
2026-05-05 12:59 44.85925 5.76933 38915 ft 446 kts 195°
2026-05-05 12:59 44.79902 5.75092 38921 ft 440 kts 196°
2026-05-05 13:00 44.70931 5.72342 38922 ft 440 kts 196°
2026-05-05 13:01 44.58928 5.68694 38931 ft 442 kts 195°
2026-05-05 13:01 44.52912 5.66869 38927 ft 442 kts 196°
2026-05-05 13:02 44.47128 5.64138 38925 ft 439 kts 202°
2026-05-05 13:02 44.41401 5.61210 38925 ft 438 kts 203°
2026-05-05 13:03 44.35687 5.58252 38926 ft 438 kts 203°
2026-05-05 13:03 44.29971 5.55284 38930 ft 438 kts 203°
2026-05-05 13:04 44.24267 5.52328 38939 ft 436 kts 203°
2026-05-05 13:04 44.18572 5.49382 38935 ft 437 kts 203°
2026-05-05 13:05 44.12875 5.46444 38934 ft 437 kts 203°
2026-05-05 13:05 44.07171 5.43508 38933 ft 436 kts 203°
2026-05-05 13:06 44.01482 5.40584 38936 ft 436 kts 203°
2026-05-05 13:06 43.95793 5.37667 38935 ft 436 kts 203°
2026-05-05 13:07 43.90096 5.34753 38919 ft 437 kts 203°
2026-05-05 13:07 43.84386 5.31839 38925 ft 438 kts 203°
2026-05-05 13:08 43.78686 5.28934 38920 ft 431 kts 203°
2026-05-05 13:08 43.73128 5.26112 38917 ft 424 kts 203°
2026-05-05 13:09 43.67552 5.23279 38911 ft 429 kts 204°
2026-05-05 13:09 43.61923 5.20425 38912 ft 432 kts 204°
2026-05-05 13:10 43.56259 5.17560 38940 ft 435 kts 204°
2026-05-05 13:10 43.50557 5.14685 38919 ft 436 kts 204°
2026-05-05 13:11 43.47756 5.13277 38738 ft 433 kts 204°
2026-05-05 13:11 43.44932 5.11857 38238 ft 431 kts 204°
2026-05-05 13:11 43.42126 5.10447 37574 ft 427 kts 204°
2026-05-05 13:11 43.39410 5.08887 37132 ft 419 kts 209°
2026-05-05 13:12 43.36848 5.06982 36977 ft 420 kts 214°
2026-05-05 13:12 43.34416 5.04756 36944 ft 421 kts 217°
2026-05-05 13:12 43.29592 5.00166 36935 ft 422 kts 217°
2026-05-05 13:13 43.24738 4.95596 36937 ft 423 kts 217°
2026-05-05 13:13 43.19872 4.91028 36936 ft 425 kts 217°
2026-05-05 13:14 43.14993 4.86458 36933 ft 425 kts 217°
2026-05-05 13:14 43.10123 4.81907 36932 ft 422 kts 217°
2026-05-05 13:15 43.05250 4.77424 36935 ft 423 kts 214°
2026-05-05 13:15 43.00095 4.73494 36938 ft 425 kts 212°
2026-05-05 13:16 42.94930 4.69588 36933 ft 424 kts 212°
2026-05-05 13:16 42.89770 4.65684 36934 ft 422 kts 212°
2026-05-05 13:17 42.84635 4.61804 36936 ft 422 kts 212°
2026-05-05 13:17 42.79494 4.57927 36935 ft 423 kts 212°
2026-05-05 13:18 42.74345 4.54052 36906 ft 422 kts 212°
2026-05-05 13:18 42.71790 4.52134 36556 ft 418 kts 212°
2026-05-05 13:18 42.69254 4.50232 36034 ft 414 kts 212°
2026-05-05 13:19 42.66741 4.48349 35344 ft 411 kts 212°
2026-05-05 13:19 42.64251 4.46484 34611 ft 406 kts 212°
2026-05-05 13:19 42.61790 4.44641 33825 ft 402 kts 212°
2026-05-05 13:19 42.59343 4.42811 32738 ft 402 kts 212°
2026-05-05 13:20 42.56882 4.40971 31502 ft 406 kts 212°
2026-05-05 13:20 42.54409 4.39124 30721 ft 402 kts 212°
2026-05-05 13:20 42.51975 4.37313 30125 ft 396 kts 213°
2026-05-05 13:20 42.49582 4.35533 29487 ft 391 kts 213°
2026-05-05 13:21 42.47208 4.33763 28750 ft 388 kts 213°
2026-05-05 13:21 42.44850 4.32007 28054 ft 385 kts 213°
2026-05-05 13:21 42.42512 4.30267 27357 ft 382 kts 212°
2026-05-05 13:21 42.40188 4.28541 26677 ft 380 kts 212°
2026-05-05 13:22 42.37886 4.26832 26157 ft 375 kts 212°
2026-05-05 13:22 42.35606 4.25143 25983 ft 374 kts 212°
2026-05-05 13:22 42.33308 4.23438 25931 ft 378 kts 212°
2026-05-05 13:22 42.31004 4.21732 25938 ft 377 kts 212°
2026-05-05 13:23 42.28702 4.20031 25934 ft 377 kts 212°
2026-05-05 13:23 42.26398 4.18328 25924 ft 378 kts 212°
2026-05-05 13:23 42.24092 4.16625 25933 ft 378 kts 212°
2026-05-05 13:23 42.21819 4.14949 25933 ft 378 kts 212°
2026-05-05 13:24 42.19512 4.13248 25933 ft 378 kts 212°
2026-05-05 13:24 42.17208 4.11551 25930 ft 378 kts 212°
2026-05-05 13:24 42.14900 4.09853 25931 ft 378 kts 212°
2026-05-05 13:24 42.12591 4.08157 25932 ft 381 kts 212°
2026-05-05 13:25 42.10232 4.06422 25924 ft 392 kts 212°
2026-05-05 13:25 42.07806 4.04640 25929 ft 402 kts 212°
2026-05-05 13:25 42.05339 4.02833 25929 ft 404 kts 212°
2026-05-05 13:25 42.02867 4.01027 25929 ft 403 kts 212°
2026-05-05 13:26 42.00400 3.99226 25924 ft 404 kts 212°
2026-05-05 13:26 41.97936 3.97427 25929 ft 404 kts 212°
2026-05-05 13:26 41.95459 3.95651 25927 ft 404 kts 210°
2026-05-05 13:26 41.92870 3.94137 25929 ft 408 kts 205°
2026-05-05 13:27 41.90157 3.92968 25919 ft 411 kts 200°
2026-05-05 13:27 41.87349 3.92152 25923 ft 415 kts 195°
2026-05-05 13:27 41.84493 3.91523 25927 ft 416 kts 195°
2026-05-05 13:27 41.81639 3.90881 25924 ft 415 kts 196°
2026-05-05 13:28 41.78796 3.90230 25923 ft 415 kts 196°
2026-05-05 13:28 41.75947 3.89573 25931 ft 415 kts 196°
2026-05-05 13:28 41.73098 3.88915 25924 ft 415 kts 196°
2026-05-05 13:28 41.70252 3.88258 25904 ft 415 kts 196°
2026-05-05 13:29 41.67420 3.87606 25710 ft 413 kts 196°
2026-05-05 13:29 41.64585 3.86953 25044 ft 413 kts 195°
2026-05-05 13:29 41.61739 3.86295 24127 ft 418 kts 195°
2026-05-05 13:29 41.58877 3.85635 23326 ft 416 kts 195°
2026-05-05 13:30 41.56036 3.84984 22457 ft 413 kts 195°
2026-05-05 13:30 41.53220 3.84340 21619 ft 409 kts 194°
2026-05-05 13:30 41.50459 3.83708 20770 ft 406 kts 194°
2026-05-05 13:30 41.47688 3.83073 20199 ft 401 kts 194°
2026-05-05 13:31 41.44926 3.82439 20010 ft 406 kts 194°
2026-05-05 13:31 41.42140 3.81799 20014 ft 407 kts 194°
2026-05-05 13:31 41.39348 3.81162 20046 ft 406 kts 194°
2026-05-05 13:31 41.36561 3.80526 20088 ft 406 kts 194°
2026-05-05 13:32 41.33781 3.79894 20128 ft 405 kts 194°
2026-05-05 13:32 41.31006 3.79262 20128 ft 404 kts 194°
2026-05-05 13:32 41.28254 3.78638 19958 ft 396 kts 194°
2026-05-05 13:32 41.25569 3.78031 19923 ft 391 kts 194°
2026-05-05 13:33 41.22881 3.77418 19922 ft 393 kts 194°
2026-05-05 13:33 41.20185 3.76803 19924 ft 393 kts 194°
2026-05-05 13:33 41.17489 3.76189 19928 ft 393 kts 194°
2026-05-05 13:33 41.14842 3.75382 19928 ft 389 kts 200°
2026-05-05 13:34 41.13147 3.74634 19927 ft 387 kts 204°
2026-05-05 13:34 41.10638 3.73315 19921 ft 387 kts 205°
2026-05-05 13:34 41.08137 3.72004 19924 ft 387 kts 205°
2026-05-05 13:34 41.05629 3.70703 19918 ft 388 kts 205°
2026-05-05 13:35 41.03114 3.69406 19920 ft 388 kts 205°
2026-05-05 13:35 41.00597 3.68110 19922 ft 388 kts 205°
2026-05-05 13:35 40.98079 3.66816 19922 ft 388 kts 205°
2026-05-05 13:35 40.95562 3.65523 19922 ft 388 kts 205°
2026-05-05 13:36 40.93047 3.64232 19922 ft 388 kts 205°
2026-05-05 13:36 40.90527 3.62940 19922 ft 388 kts 205°
2026-05-05 13:36 40.88013 3.61651 19922 ft 388 kts 205°
2026-05-05 13:36 40.85493 3.60360 19921 ft 388 kts 205°
2026-05-05 13:37 40.82976 3.59073 19923 ft 389 kts 205°
2026-05-05 13:37 40.80453 3.57783 19925 ft 388 kts 205°
2026-05-05 13:37 40.77931 3.56495 19925 ft 388 kts 205°
2026-05-05 13:37 40.75413 3.55209 19924 ft 388 kts 205°
2026-05-05 13:38 40.72892 3.53923 19923 ft 389 kts 205°
2026-05-05 13:38 40.70371 3.52638 19922 ft 389 kts 205°
2026-05-05 13:38 40.67847 3.51352 19922 ft 388 kts 205°
2026-05-05 13:38 40.65327 3.50070 19922 ft 388 kts 205°
2026-05-05 13:39 40.62807 3.48789 19922 ft 388 kts 205°
2026-05-05 13:39 40.60284 3.47508 19922 ft 389 kts 205°
2026-05-05 13:39 40.57760 3.46227 19922 ft 388 kts 205°
2026-05-05 13:39 40.55240 3.44948 19922 ft 389 kts 205°
2026-05-05 13:40 40.52718 3.43670 19922 ft 388 kts 205°
2026-05-05 13:40 40.50194 3.42392 19920 ft 389 kts 205°
2026-05-05 13:40 40.47671 3.41118 19919 ft 389 kts 205°
2026-05-05 13:40 40.45071 3.40086 19919 ft 393 kts 198°
2026-05-05 13:41 40.42360 3.39520 19897 ft 397 kts 190°
2026-05-05 13:41 40.39576 3.39437 19915 ft 403 kts 183°
2026-05-05 13:41 40.36773 3.39635 19917 ft 404 kts 183°
2026-05-05 13:41 40.34005 3.39813 19917 ft 404 kts 183°
2026-05-05 13:42 40.31164 3.39983 19920 ft 403 kts 183°
2026-05-05 13:42 40.28397 3.40142 19916 ft 403 kts 183°
2026-05-05 13:42 40.25593 3.40301 19916 ft 403 kts 183°
2026-05-05 13:42 40.22794 3.40460 19916 ft 403 kts 183°
2026-05-05 13:43 40.19989 3.40618 19890 ft 403 kts 183°
2026-05-05 13:43 40.17177 3.40777 19916 ft 405 kts 183°
2026-05-05 13:43 40.14366 3.40936 19916 ft 405 kts 183°
2026-05-05 13:43 40.11552 3.41097 19917 ft 404 kts 183°
2026-05-05 13:44 40.08741 3.41256 19910 ft 404 kts 183°
2026-05-05 13:44 40.05946 3.41416 19601 ft 401 kts 183°
2026-05-05 13:44 40.03166 3.41574 19067 ft 399 kts 183°
2026-05-05 13:44 40.00445 3.41732 18816 ft 380 kts 183°
2026-05-05 13:45 39.97893 3.41887 18576 ft 355 kts 183°
2026-05-05 13:45 39.95502 3.42030 18360 ft 334 kts 184°
2026-05-05 13:45 39.93252 3.42160 18160 ft 314 kts 184°
2026-05-05 13:45 39.91103 3.42277 17573 ft 306 kts 184°
2026-05-05 13:46 39.88984 3.42384 16884 ft 304 kts 184°
2026-05-05 13:46 39.86877 3.42490 16374 ft 302 kts 184°
2026-05-05 13:46 39.84786 3.42601 15902 ft 299 kts 183°
2026-05-05 13:46 39.82711 3.42714 15418 ft 297 kts 183°
2026-05-05 13:47 39.80652 3.42827 14941 ft 295 kts 183°
2026-05-05 13:47 39.78610 3.42939 14423 ft 294 kts 182°
2026-05-05 13:47 39.76547 3.43049 13719 ft 300 kts 182°
2026-05-05 13:47 39.74446 3.43124 12903 ft 302 kts 187°
2026-05-05 13:48 39.72463 3.42415 12344 ft 292 kts 212°
2026-05-05 13:48 39.70977 3.40779 12168 ft 274 kts 232°
2026-05-05 13:48 39.70109 3.38623 11645 ft 272 kts 252°
2026-05-05 13:48 39.69941 3.36173 11125 ft 274 kts 271°
2026-05-05 13:49 39.70072 3.33706 10578 ft 273 kts 270°
2026-05-05 13:49 39.70180 3.31249 10046 ft 272 kts 270°
2026-05-05 13:49 39.70267 3.28801 9473 ft 271 kts 269°
2026-05-05 13:49 39.70341 3.26364 8915 ft 269 kts 270°
2026-05-05 13:50 39.70414 3.23943 8334 ft 268 kts 270°
2026-05-05 13:50 39.70484 3.21534 7785 ft 266 kts 270°
2026-05-05 13:50 39.70557 3.19139 7228 ft 265 kts 270°
2026-05-05 13:50 39.70628 3.16752 6691 ft 263 kts 270°
2026-05-05 13:51 39.70699 3.14408 6227 ft 258 kts 271°
2026-05-05 13:51 39.70765 3.12073 6002 ft 263 kts 271°
2026-05-05 13:51 39.70766 3.09728 5927 ft 257 kts 262°
2026-05-05 13:51 39.70297 3.07512 5920 ft 257 kts 246°
2026-05-05 13:52 39.69374 3.05490 5914 ft 262 kts 238°
2026-05-05 13:52 39.68412 3.03517 5916 ft 256 kts 238°
2026-05-05 13:52 39.67480 3.01564 5917 ft 259 kts 239°
2026-05-05 13:52 39.66535 2.99553 5915 ft 255 kts 239°
2026-05-05 13:53 39.65609 2.97578 5921 ft 257 kts 239°
2026-05-05 13:53 39.64683 2.95603 5917 ft 255 kts 239°
2026-05-05 13:53 39.63760 2.93634 5923 ft 258 kts 239°
2026-05-05 13:53 39.62833 2.91654 5920 ft 256 kts 239°
2026-05-05 13:54 39.61897 2.89662 5924 ft 260 kts 239°
2026-05-05 13:54 39.60963 2.87674 5926 ft 256 kts 239°
2026-05-05 13:54 39.60041 2.85733 5920 ft 257 kts 238°
2026-05-05 13:54 39.59110 2.83727 5770 ft 255 kts 239°
2026-05-05 13:55 39.58212 2.81745 5090 ft 253 kts 240°
2026-05-05 13:55 39.57354 2.79804 4426 ft 241 kts 242°
2026-05-05 13:55 39.56588 2.77911 3522 ft 233 kts 244°
2026-05-05 13:55 39.55949 2.76095 3093 ft 207 kts 245°
2026-05-05 13:56 39.55210 2.74509 2889 ft 214 kts 229°
2026-05-05 13:56 39.54024 2.73182 2963 ft 240 kts 216°
2026-05-05 13:56 39.52625 2.71848 3299 ft 256 kts 219°
2026-05-05 13:56 39.51122 2.70659 4225 ft 252 kts 207°
2026-05-05 13:57 39.49489 2.70072 5281 ft 247 kts 185°
2026-05-05 13:57 39.47721 2.70577 5563 ft 277 kts 158°
2026-05-05 13:57 39.46128 2.72144 5958 ft 302 kts 134°
2026-05-05 13:57 39.45049 2.74569 6417 ft 322 kts 111°
2026-05-05 13:58 39.44717 2.77487 6887 ft 338 kts 89°
2026-05-05 13:58 39.45225 2.80489 7382 ft 348 kts 68°
2026-05-05 13:58 39.46534 2.83148 7909 ft 355 kts 47°
2026-05-05 13:58 39.48217 2.85487 8261 ft 363 kts 48°
2026-05-05 13:59 39.51669 2.90853 8462 ft 396 kts 51°
2026-05-05 13:59 39.53407 2.93648 8975 ft 399 kts 51°
2026-05-05 14:00 39.56891 2.99253 9836 ft 392 kts 51°
2026-05-05 14:00 39.57989 3.01020 9890 ft 367 kts 51°
2026-05-05 14:00 39.60002 3.04259 9791 ft 329 kts 51°
2026-05-05 14:00 39.61404 3.06534 9262 ft 319 kts 51°
2026-05-05 14:01 39.62757 3.08752 8629 ft 308 kts 51°
2026-05-05 14:01 39.64050 3.10866 8014 ft 295 kts 49°
2026-05-05 14:01 39.65481 3.12708 7428 ft 284 kts 38°
2026-05-05 14:01 39.67073 3.14124 6868 ft 272 kts 26°
2026-05-05 14:02 39.68769 3.15046 6370 ft 254 kts
2026-05-05 14:02 39.70379 3.14677 6198 ft 223 kts 318°
2026-05-05 14:02 39.70999 3.13161 6519 ft 183 kts 269°
2026-05-05 14:02 39.70478 3.11512 5903 ft 221 kts 237°
2026-05-05 14:03 39.69704 3.09676 6065 ft 236 kts 250°
2026-05-05 14:03 39.69317 3.07690 7094 ft 217 kts 257°
2026-05-05 14:03 39.68972 3.05809 7772 ft 215 kts 253°
2026-05-05 14:03 39.68462 3.03966 7798 ft 218 kts 245°
2026-05-05 14:04 39.67779 3.02212 7640 ft 217 kts 240°
2026-05-05 14:04 39.67016 3.00564 7373 ft 213 kts 238°
2026-05-05 14:04 39.66252 2.98942 6936 ft 214 kts 239°
2026-05-05 14:04 39.65480 2.97296 6531 ft 212 kts 239°
2026-05-05 14:05 39.64719 2.95676 6132 ft 209 kts 239°
2026-05-05 14:05 39.63952 2.94046 5647 ft 212 kts 239°
2026-05-05 14:05 39.63208 2.92463 5523 ft 199 kts 239°
2026-05-05 14:05 39.62507 2.90971 5386 ft 188 kts 239°
2026-05-05 14:06 39.61845 2.89564 5298 ft 177 kts 239°
2026-05-05 14:06 39.61224 2.88247 5202 ft 166 kts 239°
2026-05-05 14:06 39.60626 2.86975 5010 ft 161 kts 239°
2026-05-05 14:06 39.60003 2.85686 3979 ft 194 kts 237°
2026-05-05 14:07 39.59147 2.83960 2141 ft 255 kts 236°
2026-05-05 14:07 39.58142 2.81902 1321 ft 261 kts 237°
2026-05-05 14:07 39.57278 2.79907 913 ft 246 kts 241°
2026-05-05 14:07 39.56502 2.78072 782 ft 208 kts 240°
2026-05-05 14:08 39.55832 2.76521 1917 ft 194 kts 237°
2026-05-05 14:08 39.55091 2.75027 2887 ft 200 kts 235°
2026-05-05 14:08 39.54282 2.73486 3591 ft 218 kts 236°
2026-05-05 14:08 39.53222 2.71908 3899 ft 247 kts 231°
2026-05-05 14:09 39.52187 2.69968 3997 ft 279 kts 239°
2026-05-05 14:09 39.51145 2.67673 4006 ft 311 kts 240°
2026-05-05 14:09 39.49873 2.65257 4004 ft 337 kts 228°
2026-05-05 14:09 39.47973 2.63431 4003 ft 336 kts 207°
2026-05-05 14:10 39.45829 2.62687 3996 ft 307 kts 185°
2026-05-05 14:10 39.43761 2.62770 4001 ft 298 kts 180°
2026-05-05 14:10 39.41712 2.63096 3998 ft 297 kts 165°
2026-05-05 14:10 39.39886 2.64382 3996 ft 306 kts 141°
2026-05-05 14:11 39.38578 2.66547 3978 ft 308 kts 117°
2026-05-05 14:11 39.38042 2.69219 3980 ft 310 kts 93°
2026-05-05 14:11 39.38375 2.71964 3974 ft 306 kts 69°
2026-05-05 14:11 39.39280 2.74307 3971 ft 279 kts 62°
2026-05-05 14:12 39.40150 2.76451 3976 ft 268 kts 62°
2026-05-05 14:12 39.41040 2.78653 3974 ft 279 kts 62°
2026-05-05 14:12 39.41942 2.80888 3972 ft 281 kts 62°
2026-05-05 14:12 39.42872 2.83124 3983 ft 283 kts 59°
2026-05-05 14:13 39.43868 2.85316 3980 ft 279 kts 58°
2026-05-05 14:13 39.44851 2.87490 3995 ft 281 kts 59°
2026-05-05 14:13 39.45852 2.89664 3970 ft 279 kts 58°
2026-05-05 14:13 39.46831 2.91816 3971 ft 277 kts 59°
2026-05-05 14:14 39.47817 2.93992 3982 ft 286 kts 59°
2026-05-05 14:14 39.48806 2.96172 3976 ft 282 kts 59°
2026-05-05 14:14 39.49802 2.98371 3979 ft 281 kts 58°
2026-05-05 14:14 39.50793 3.00573 3981 ft 285 kts 59°
2026-05-05 14:15 39.51794 3.02770 3983 ft 282 kts 59°
2026-05-05 14:15 39.52786 3.04942 3981 ft 281 kts 59°
2026-05-05 14:15 39.53792 3.07132 3979 ft 284 kts 59°
2026-05-05 14:15 39.54798 3.09312 3980 ft 280 kts 59°
2026-05-05 14:16 39.55773 3.11445 3976 ft 280 kts 59°
2026-05-05 14:16 39.56788 3.13665 3980 ft 284 kts 59°
2026-05-05 14:16 39.57859 3.15785 3970 ft 278 kts 47°
2026-05-05 14:16 39.59387 3.17234 3976 ft 278 kts 21°
2026-05-05 14:17 39.61270 3.17704 3980 ft 272 kts 355°
2026-05-05 14:17 39.63067 3.17079 3973 ft 266 kts 328°
2026-05-05 14:17 39.64379 3.15558 3977 ft 247 kts 300°
2026-05-05 14:17 39.64921 3.13605 3984 ft 220 kts 274°
2026-05-05 14:18 39.65129 3.11647 3967 ft 219 kts 282°
2026-05-05 14:18 39.65841 3.09938 3974 ft 222 kts 311°
2026-05-05 14:18 39.67057 3.08711 3973 ft 222 kts 321°
2026-05-05 14:18 39.68305 3.07594 3978 ft 213 kts 322°
2026-05-05 14:19 39.69481 3.06549 3971 ft 197 kts 322°
2026-05-05 14:19 39.70676 3.05842 3949 ft 186 kts 348°
2026-05-05 14:19 39.71933 3.06090 3775 ft 188 kts 24°
2026-05-05 14:19 39.73064 3.06955 3565 ft 187 kts 30°
2026-05-05 14:20 39.74162 3.07836 3682 ft 187 kts 30°
2026-05-05 14:20 39.75280 3.08753 3913 ft 196 kts 30°
2026-05-05 14:20 39.76038 3.09391 3956 ft 193 kts 31°
2026-05-05 14:20 39.77089 3.10406 3942 ft 187 kts 49°
2026-05-05 14:21 39.77607 3.11949 3995 ft 191 kts 86°
2026-05-05 14:21 39.77349 3.13549 3967 ft 180 kts 127°
2026-05-05 14:21 39.76411 3.14560 3963 ft 174 kts 166°
2026-05-05 14:21 39.75246 3.14553 3969 ft 169 kts 206°
2026-05-05 14:22 39.74214 3.13168 3957 ft 159 kts 239°
2026-05-05 14:22 39.73731 3.12418 4004 ft 166 kts 228°
2026-05-05 14:22 39.72889 3.11353 3965 ft 165 kts 226°
2026-05-05 14:22 39.72092 3.10365 3956 ft 158 kts 226°
2026-05-05 14:23 39.71286 3.09293 3964 ft 168 kts 230°
2026-05-05 14:23 39.70601 3.08103 3972 ft 165 kts 237°
2026-05-05 14:23 39.69978 3.06836 3972 ft 168 kts 239°
2026-05-05 14:23 39.69371 3.05555 3970 ft 163 kts 239°
2026-05-05 14:24 39.68792 3.04326 3960 ft 159 kts 240°
2026-05-05 14:24 39.68199 3.03057 3978 ft 170 kts 239°
2026-05-05 14:24 39.67600 3.01794 3948 ft 155 kts 239°
2026-05-05 14:24 39.67070 3.00665 3957 ft 140 kts 239°
2026-05-05 14:25 39.66571 2.99608 3989 ft 140 kts 240°
2026-05-05 14:25 39.66060 2.98516 3921 ft 140 kts 239°
2026-05-05 14:25 39.65554 2.97449 3743 ft 136 kts 239°
2026-05-05 14:25 39.65037 2.96345 3571 ft 146 kts 239°
2026-05-05 14:26 39.64523 2.95252 3388 ft 142 kts 239°
2026-05-05 14:26 39.63987 2.94112 3205 ft 148 kts 238°
2026-05-05 14:26 39.63473 2.93022 3011 ft 135 kts 238°
2026-05-05 14:26 39.62995 2.92003 2842 ft 133 kts 238°
2026-05-05 14:27 39.62504 2.90962 2688 ft 137 kts 238°
2026-05-05 14:27 39.62013 2.89913 2489 ft 135 kts 237°
2026-05-05 14:27 39.61517 2.88860 2317 ft 136 kts 236°
2026-05-05 14:27 39.61044 2.87853 2119 ft 130 kts 236°
2026-05-05 14:28 39.60563 2.86844 1939 ft 135 kts 236°
2026-05-05 14:28 39.60077 2.85808 1775 ft 134 kts 238°
2026-05-05 14:28 39.59602 2.84790 1594 ft 128 kts 237°
2026-05-05 14:28 39.59153 2.83831 1439 ft 137 kts 236°
2026-05-05 14:29 39.58550 2.82594 1304 ft 184 kts 237°
2026-05-05 14:29 39.57901 2.81224 1416 ft 164 kts 237°
2026-05-05 14:29 39.57325 2.80004 1038 ft 154 kts 236°
2026-05-05 14:29 39.56779 2.78834 675 ft 146 kts 237°
2026-05-05 14:30 39.56279 2.77744 413 ft 137 kts 236°
2026-05-05 14:30 39.55802 2.76729 138 ft 123 kts 237°
2026-05-05 14:30 39.55382 2.75838 37 ft 111 kts 236°
2026-05-05 14:30 39.55081 2.75202 34 ft 50 kts 240°
2026-05-05 14:31 39.54913 2.74839 34 ft 44 kts 238°
2026-05-05 14:31 39.54809 2.74513 37 ft 34 kts 262°
2026-05-05 14:31 39.54804 2.74455 37 ft 7 kts 265°
2026-05-05 14:31 39.54797 2.74323 37 ft 21 kts 266°
2026-05-05 14:32 39.54794 2.74205 38 ft 0 kts 269°
2026-05-05 14:32 39.54775 2.74093 39 ft 27 kts 247°
2026-05-05 14:32 39.54751 2.74029 39 ft 0 kts 242°
2026-05-05 14:33 39.54737 2.73992 39 ft 19 kts 245°
2026-05-05 14:33 39.54730 2.73833 40 ft 17 kts 251°
2026-05-05 14:33 39.54669 2.73699 41 ft 19 kts 238°
2026-05-05 14:33 39.54641 2.73569 41 ft 9 kts 300°
2026-05-05 14:34 39.54659 2.73526 41 ft 2 kts 291°
2026-05-05 14:34 39.54651 2.73459 41 ft 0 kts 257°
2026-05-05 14:34 39.54652 2.73452 42 ft 8 kts 266°
2026-05-05 14:34 39.54650 2.73439 42 ft 3 kts 260°
2026-05-05 14:35 39.54647 2.73440 40 ft 2 kts 238°
2026-05-05 14:35 39.54650 2.73438 42 ft 0 kts 253°